Find Starlink 11625

NORAD ID: 63109 Int'l Des: 2025-039 Owner: SPXS Country: US Constellation: starlink operational
LEOCIRCULAR

当前视图

正在加载3D地球...

About Starlink 11625

Starlink 11625 (NORAD 63109) is a starlink constellation satellite (v2 mini d2c) launched Feb 27, 2025 by SPXS of US. It operates in LEO, CIRCULAR orbit with a mass of 960.00 kg.

关于 Starlink 11625

正在加载描述...

即将过境

Passes for default location (London). Set your location on the main map for personalized predictions.

高度历史

Loading altitude history...

两行轨道根数

1 63109U 25039F 26169.79065947 .00143742 00000-0 11044-2 0 9992
2 63109 43.0003 347.6531 0001041 248.6316 111.4440 15.70840396 75512
Epoch: Jun 18, 2026 • Age: 17 hours

当前状态

高度 359.6 km
速度 7.70 km/s
星下点 42.87°N, 24.29°W
发射日期 Feb 27, 2025
运行时间 1.3 years
类型 internet

技术详情

分类 Payload
质量 960.00 kg
干质量 910.00 kg
总质量 960.00 kg
长度 0.30 m
直径 4.10 m
跨度 29.00 m
形状 Box + pan
制造商 SPXS
平台类型 Starlink V2MD
阶段状态 In Orbit
所有者/国家 SPXS/US

Most Searched